Location: Betra
(48.4113°N, 8.6634°E)
Time: 16:23:24
(UTC+00:00)

Nimbus 7 Rocket - Pass Details

Date: 23 May 2024
Orbit: 922 x 964 km, 99.4° (Epoch: 16 June)

Event Time Altitude Azimuth Distance (km) Brightness Sun altitude
Rises 00:25:19 0° 14° (NNE) 3,621 9.2 -19.5°
Reaches altitude 10° 00:27:45 10° 14° (NNE) 2,678 8.0 -19.4°
Maximum altitude 00:33:45 83° 288° (WNW) 966 4.4 -19.1°
Enters shadow 00:36:44 32° 203° (SSW) 1,573 5.0 -19.0°
